Rhinelander, WI

7:15 AM CDT on July 22, 2017 (GMT -0500)
Rhinelander-Oneida County

Weather History for KRHI - October, 2011

Change the Weather History Date:

Thursday, October 27, 2011

  Actual Average Record
Temperature  
Mean Temperature 35 °F 40 °F  
Max Temperature 45 °F 49 °F 78 °F (1927)
Min Temperature 24 °F 31 °F 11 °F (1976)
Degree Days  
Heating Degree Days 30 25  
Month to date heating degree days 408 557  
Since 1 July heating degree days 762 989  
Cooling Degree Days 0 0  
Month to date cooling degree days 10 0  
Year to date cooling degree days 321 259  
Moisture  
Dew Point 28 °F    
Average Humidity 77    
Maximum Humidity 100    
Minimum Humidity 53    
Precipitation  
Precipitation T in 0.07 in 1.20 in (1984)
Month to date precipitation 1.17 2.75  
Year to date precipitation 24.33 27.83  
Snow  
Snow 0.00 in - 2.00 in (2008)
Month to date snowfall T  
Since 1 July snowfall T  
Since 1 September snowfall T  
Snow Depth 0.00 in    
Sea Level Pressure  
Sea Level Pressure 30.06 in    
Wind  
Wind Speed 2 mph (WSW)    
Max Wind Speed 10 mph    
Max Gust Speed 15 mph    
Visibility 8 miles    
Events Fog    
T = Trace of Precipitation, MM = Missing Value Source: NWS Daily Summary

Daily Weather History Graph

Daily Weather History Graph

Search for Another Location

Airport or City:

Trip Planner

Search our weather history database for the weather conditions in past years. The results will help you decide how hot, cold, wet, or windy it might be!

Date:

Astronomy

Oct. 27, 2011 Rise Set
Actual Time 7:30 AM CDT 5:52 PM CDT
Civil Twilight 6:59 AM CDT 6:23 PM CDT
Nautical Twilight 6:24 AM CDT 6:57 PM CDT
Astronomical Twilight 5:50 AM CDT 7:32 PM CDT
Moon 8:39 AM CDT (10/27) 6:14 PM CDT (10/27)
Length of Visible Light 11h 23m
Length of Day
10h 22m
New Moon, 1% of the Moon is Illuminated
Oct 27
New Moon
Nov 2
First Quarter
Nov 10
Full
Nov 18
Last Quarter
Nov 25
New

Hourly Weather History & Observations

Time (CDT) Temp. Windchill Dew Point Humidity Pressure Visibility Wind Dir Wind Speed Gust Speed Precip Events Conditions
12:53 AM 30.0 °F - 28.0 °F 92% 30.04 in 10.0 mi Calm Calm - N/A   Mostly Cloudy
1:53 AM 28.9 °F - 27.0 °F 92% 30.03 in 10.0 mi Calm Calm - N/A   Overcast
2:32 AM 26.6 °F - 24.8 °F 93% 29.99 in 1.8 mi Calm Calm - N/A   Clear
2:43 AM 28.4 °F - 26.6 °F 93% 29.99 in 0.8 mi Calm Calm - N/A   Clear
3:01 AM 28.4 °F - 24.8 °F 86% 29.99 in 2.5 mi Calm Calm - N/A   Clear
3:08 AM 28.4 °F - 26.6 °F 93% 29.99 in 10.0 mi Calm Calm - N/A   Partly Cloudy
3:53 AM 28.9 °F - 27.0 °F 92% 30.03 in 10.0 mi Calm Calm - N/A   Overcast
4:53 AM 30.0 °F - 28.0 °F 92% 30.03 in 10.0 mi Calm Calm - N/A   Scattered Clouds
7:53 AM 26.1 °F - 23.0 °F 88% 30.07 in 10.0 mi Calm Calm - N/A   Overcast
8:53 AM 30.9 °F - 28.9 °F 92% 30.07 in 10.0 mi Calm Calm - N/A   Scattered Clouds
9:53 AM 35.1 °F - 32.0 °F 89% 30.07 in 10.0 mi Calm Calm - N/A   Partly Cloudy
11:53 AM 41.0 °F 39.0 °F 28.9 °F 62% 30.07 in 10.0 mi Variable 3.5 mph - N/A   Scattered Clouds
12:00 PM 39.2 °F 35.9 °F 28.4 °F 65% 30.01 in 10.0 mi Variable 4.6 mph - N/A   Mostly Cloudy
12:08 PM 41.0 °F 39.0 °F 28.4 °F 61% 30.01 in 10.0 mi Variable 3.5 mph - N/A   Mostly Cloudy
12:53 PM 43.0 °F - 28.0 °F 56% 30.05 in 10.0 mi Calm Calm - N/A   Mostly Cloudy
2:53 PM 44.1 °F 40.1 °F 28.0 °F 53% 30.04 in 10.0 mi WSW 6.9 mph - N/A   Overcast
3:53 PM 43.0 °F 40.3 °F 28.9 °F 58% 30.06 in 10.0 mi West 4.6 mph - N/A   Overcast
4:53 PM 42.1 °F - 28.9 °F 60% 30.06 in 10.0 mi Calm Calm - N/A   Partly Cloudy
5:53 PM 39.0 °F - 28.9 °F 67% 30.08 in 10.0 mi Calm Calm - N/A   Clear
6:53 PM 33.1 °F 30.0 °F 28.0 °F 82% 30.11 in 10.0 mi West 3.5 mph - N/A   Clear
8:53 PM 36.0 °F - 30.9 °F 82% 30.13 in 10.0 mi Calm Calm - 0.00 in   Mostly Cloudy
9:53 PM 28.0 °F 24.2 °F 25.0 °F 88% 30.14 in 10.0 mi SW 3.5 mph - N/A   Clear
10:34 PM 28.4 °F - 26.6 °F 93% 30.08 in 1.8 mi Calm Calm - N/A   Clear
10:48 PM 28.4 °F 22.2 °F 26.6 °F 93% 30.08 in 4.0 mi West 5.8 mph - N/A   Clear
10:53 PM 28.9 °F 23.9 °F 27.0 °F 92% 30.14 in 10.0 mi West 4.6 mph - N/A   Clear
11:49 PM 28.4 °F 24.6 °F 26.6 °F 93% 30.08 in 1.8 mi WSW 3.5 mph - N/A   Clear
11:53 PM 28.0 °F - 27.0 °F 96% 30.13 in 0.5 mi Calm Calm - N/A Fog Light Freezing Fog